Location: Brompton
(51.4000°N, 0.5333°E)
Time: 09:39:45
(UTC+00:00)

USA 308 - Pass Details

Date: 11 May 2021
Orbit: 568 x 576 km, 54.0° (Epoch: 10 May)

Event Time Altitude Azimuth Distance (km) Brightness Sun altitude
Rises 21:19:44 0° 292° (WNW) 2,786 7.5 -12.7°
Reaches altitude 10° 21:22:02 10° 288° (WNW) 1,886 6.4 -12.9°
Maximum altitude 21:26:13 55° 211° (SSW) 698 3.2 -13.3°
Enters shadow 21:28:44 22° 141° (SE) 1,263 4.0 -13.6°
